Change the Weather History Date:

Sunday, April 13, 2014

  Actual Average Record
Temperature  
Mean Temperature 25 °F 43 °F  
Max Temperature 31 °F 57 °F 80 °F (1915)
Min Temperature 18 °F 29 °F 8 °F (1933)
Degree Days  
Heating Degree Days 40 22  
Month to date heating degree days 311 307  
Since 1 July heating degree days 7050 6766  
Cooling Degree Days 0 0  
Month to date cooling degree days 0 0  
Year to date cooling degree days 0 0  
Moisture  
Dew Point 19 °F    
Average Humidity 75    
Maximum Humidity 92    
Minimum Humidity 58    
Precipitation  
Precipitation 0.15 in 0.05 in 1.97 in (1941)
Month to date precipitation 1.11 0.55  
Year to date precipitation 4.65 2.63  
Sea Level Pressure  
Sea Level Pressure 30.25 in    
Wind  
Wind Speed 14 mph (NW)    
Max Wind Speed 21 mph    
Max Gust Speed 24 mph    
Visibility 4 miles    
Events Fog , Snow    
T = Trace of Precipitation, MM = Missing Value Source: NWS Daily Summary

Daily Weather History Graph

Daily Weather History Graph

Search for Another Location

Airport or City:

Trip Planner

Search our weather history database for the weather conditions in past years. The results will help you decide how hot, cold, wet, or windy it might be!

Date:

Astronomy

Apr. 13, 2014 Rise Set
Actual Time 6:26 AM MDT 7:50 PM MDT
Civil Twilight 5:56 AM MDT 8:21 PM MDT
Nautical Twilight 5:20 AM MDT 8:57 PM MDT
Astronomical Twilight 4:41 AM MDT 9:37 PM MDT
Moon 6:28 PM MDT (4/13) 5:31 AM MDT (4/13)
Length of Visible Light 14h 24m
Length of Day
13h 23m
Waxing Gibbous, 97% of the Moon is Illuminated
Apr 13
Waxing Gibbous
Apr 15
Full
Apr 22
Last Quarter
Apr 29
New
May 6
First Quarter

Hourly Weather History & Observations

Time (MDT) Temp. Windchill Dew Point Humidity Pressure Visibility Wind Dir Wind Speed Gust Speed Precip Events Conditions
12:16 AM 27.0 °F 17.3 °F 24.1 °F 89% 30.10 in 1.5 mi North 10.4 mph - 0.01 in Snow Light Snow
12:30 AM 27.0 °F 19.5 °F 25.0 °F 92% 30.11 in 1.5 mi North 6.9 mph - 0.02 in Snow Light Snow
12:37 AM 27.0 °F 17.3 °F 25.0 °F 92% 30.11 in 1.2 mi North 10.4 mph - 0.02 in Snow Light Snow
12:48 AM 26.6 °F 16.8 °F 24.8 °F 93% 30.11 in 0.5 mi North 10.4 mph - 0.04 in Fog , Snow Snow
12:53 AM 27.0 °F 18.0 °F 25.0 °F 92% 30.18 in 0.5 mi NNW 9.2 mph - 0.05 in Fog , Snow Snow
1:00 AM 27.0 °F 15.6 °F 24.1 °F 89% 30.11 in 1.0 mi NW 13.8 mph - 0.01 in Snow Light Snow
1:21 AM 26.1 °F 12.7 °F 23.0 °F 88% 30.11 in 1.0 mi NW 18.4 mph - 0.02 in Snow Light Snow
1:53 AM 26.1 °F 14.5 °F 23.0 °F 88% 30.19 in 1.2 mi NNW 13.8 mph - 0.04 in Snow Light Snow
2:21 AM 25.0 °F 14.2 °F 21.9 °F 88% 30.13 in 1.5 mi NNW 11.5 mph - 0.02 in Snow Light Snow
2:51 AM 24.8 °F 14.0 °F 21.2 °F 86% 30.12 in 2.0 mi WNW 11.5 mph - 0.03 in Snow Light Snow
2:53 AM 25.0 °F 14.2 °F 21.9 °F 88% 30.20 in 2.0 mi WNW 11.5 mph - 0.03 in Snow Light Snow
3:06 AM 25.0 °F 13.1 °F 21.9 °F 88% 30.12 in 1.5 mi NW 13.8 mph - 0.00 in Snow Light Snow
3:48 AM 24.8 °F 11.5 °F 21.2 °F 86% 30.13 in 2.0 mi NW 17.3 mph - 0.01 in Snow Light Snow
3:53 AM 24.1 °F 10.6 °F 21.0 °F 88% 30.22 in 2.0 mi NW 17.3 mph - 0.01 in Snow Light Snow
4:05 AM 24.1 °F 11.0 °F 21.0 °F 88% 30.13 in 4.0 mi NW 16.1 mph - 0.00 in Snow Light Snow
4:53 AM 24.1 °F 12.0 °F 21.0 °F 88% 30.23 in 2.0 mi NW 13.8 mph - 0.08 in Snow Light Snow
5:00 AM 24.1 °F 12.5 °F 19.9 °F 84% 30.14 in 1.8 mi NW 12.7 mph - 0.00 in Snow Light Snow
5:18 AM 23.0 °F 9.6 °F 19.9 °F 88% 30.14 in 3.0 mi WNW 16.1 mph - 0.00 in Snow Light Snow
5:33 AM 23.0 °F 10.1 °F 19.9 °F 88% 30.14 in 4.0 mi WNW 15.0 mph - 0.00 in Snow Light Snow
5:53 AM 23.0 °F 10.1 °F 19.9 °F 88% 30.25 in 6.0 mi WNW 15.0 mph - 0.00 in   Overcast
6:19 AM 23.0 °F 10.6 °F 19.9 °F 88% 30.16 in 2.5 mi NW 13.8 mph - 0.00 in Snow Light Snow
6:30 AM 23.0 °F 11.7 °F 19.9 °F 88% 30.16 in 3.0 mi NW 11.5 mph - 0.00 in Snow Light Snow
6:37 AM 23.0 °F 11.1 °F 19.9 °F 88% 30.17 in 2.0 mi NW 12.7 mph - 0.00 in Snow Light Snow
6:44 AM 23.0 °F 11.1 °F 19.9 °F 88% 30.17 in 1.8 mi NW 12.7 mph - 0.00 in Snow Light Snow
6:53 AM 23.0 °F 10.6 °F 19.9 °F 88% 30.30 in 1.5 mi NW 13.8 mph - 0.00 in Snow Light Snow
7:07 AM 23.0 °F 10.1 °F 19.4 °F 86% 30.18 in 2.0 mi NW 15.0 mph - N/A Snow Light Snow
7:18 AM 23.0 °F 10.1 °F 19.9 °F 88% 30.18 in 2.0 mi NW 15.0 mph - 0.00 in Snow Light Snow
7:35 AM 23.0 °F 10.6 °F 19.9 °F 88% 30.18 in 2.5 mi NW 13.8 mph - 0.00 in Snow Light Snow
7:42 AM 23.0 °F 11.1 °F 19.9 °F 88% 30.19 in 3.0 mi NW 12.7 mph - 0.00 in Snow Light Snow
7:53 AM 23.0 °F 10.1 °F 19.9 °F 88% 30.31 in 2.0 mi NW 15.0 mph - 0.00 in Snow Light Snow
8:01 AM 23.0 °F 9.6 °F 19.9 °F 88% 30.19 in 1.2 mi NW 16.1 mph - 0.00 in Snow Light Snow
8:30 AM 23.0 °F 10.1 °F 19.0 °F 85% 30.21 in 2.0 mi NW 15.0 mph - 0.00 in Snow Light Snow
8:37 AM 23.0 °F 9.2 °F 19.0 °F 85% 30.21 in 1.5 mi NW 17.3 mph - 0.00 in Snow Light Snow
8:53 AM 23.0 °F 9.6 °F 19.9 °F 88% 30.34 in 1.5 mi NW 16.1 mph - 0.00 in Snow Light Snow
9:11 AM 23.0 °F 9.2 °F 19.0 °F 85% 30.21 in 2.0 mi NW 17.3 mph - 0.00 in Snow Light Snow
9:17 AM 23.0 °F 9.6 °F 19.9 °F 88% 30.21 in 3.0 mi NW 16.1 mph - 0.00 in Snow Light Snow
9:25 AM 24.1 °F 12.0 °F 19.9 °F 84% 30.21 in 3.0 mi NW 13.8 mph - 0.00 in Snow Light Snow
9:31 AM 24.1 °F 10.6 °F 19.9 °F 84% 30.21 in 1.8 mi NW 17.3 mph - 0.00 in Snow Light Snow
9:53 AM 24.1 °F 10.6 °F 19.9 °F 84% 30.36 in 1.8 mi NW 17.3 mph - 0.00 in Snow Light Snow
10:02 AM 24.1 °F 11.0 °F 19.9 °F 84% 30.23 in 2.0 mi NW 16.1 mph - 0.00 in Snow Light Snow
10:11 AM 24.1 °F 11.0 °F 19.9 °F 84% 30.23 in 1.8 mi WNW 16.1 mph - 0.00 in Snow Light Snow
10:30 AM 24.1 °F 10.6 °F 19.9 °F 84% 30.24 in 2.0 mi WNW 17.3 mph - 0.00 in Snow Light Snow
10:49 AM 24.8 °F 11.1 °F 19.4 °F 80% 30.24 in 4.0 mi NW 18.4 mph - 0.00 in   Haze
10:53 AM 25.0 °F 11.3 °F 19.9 °F 81% 30.37 in 6.0 mi NW 18.4 mph - 0.00 in   Haze
11:53 AM 26.1 °F 13.1 °F 21.0 °F 81% 30.37 in 9.0 mi NW 17.3 mph - N/A   Overcast
12:53 PM 27.0 °F 13.9 °F 19.0 °F 72% 30.38 in 10.0 mi NW 18.4 mph - N/A   Scattered Clouds
1:53 PM 28.0 °F 16.1 °F 19.9 °F 72% 30.38 in 10.0 mi NNW 16.1 mph - N/A   Clear
2:53 PM 28.0 °F 15.7 °F 19.0 °F 69% 30.39 in 10.0 mi NW 17.3 mph - N/A   Clear
3:53 PM 28.9 °F 16.5 °F 16.0 °F 58% 30.39 in 10.0 mi WNW 18.4 mph - N/A   Clear
4:53 PM 28.9 °F 17.7 °F 16.0 °F 58% 30.39 in 10.0 mi WNW 15.0 mph - N/A   Overcast
5:53 PM 30.2 °F 20.2 °F 17.6 °F 60% 30.27 in 10.0 mi WNW 12.7 mph - N/A   Mostly Cloudy
6:53 PM 28.0 °F 20.0 °F 15.1 °F 58% 30.40 in 10.0 mi WNW 8.1 mph - N/A   Scattered Clouds
7:53 PM 23.0 °F 12.4 °F 12.0 °F 63% 30.43 in 10.0 mi West 10.4 mph - N/A   Clear
8:53 PM 19.9 °F 6.7 °F 10.0 °F 65% 30.45 in 10.0 mi West 13.8 mph - N/A   Clear
9:53 PM 21.0 °F 10.6 °F 10.0 °F 63% 30.46 in 10.0 mi West 9.2 mph - N/A   Clear
10:53 PM 21.0 °F 9.3 °F 10.0 °F 63% 30.46 in 10.0 mi West 11.5 mph - N/A   Clear
11:53 PM 19.9 °F 8.6 °F 10.0 °F 65% 30.44 in 10.0 mi West 10.4 mph - N/A   Clear